| time (UTC) | temp F | wind direction | speed MPH | gust MPH | rain 1hr in | rain 24hr in | rain mn in | humidity % | barometer mb |
| 20260505230011 | 52 | 266 | 10.0 | 20.0 | 0.00 | 0.00 | 0.00 | 44 | 1010.2 |
| 20260505224511 | 52 | 235 | 11.0 | 17.0 | 0.00 | 0.00 | 0.00 | 43 | 1010.1 |
| 20260505223010 | 52 | 299 | 8.0 | 16.0 | 0.00 | 0.00 | 0.00 | 44 | 1010.0 |
| 20260505221609 | 52 | 298 | 7.0 | 14.0 | 0.00 | 0.00 | 0.00 | 43 | 1009.9 |
| 20260505220009 | 52 | 281 | 11.0 | 16.0 | 0.00 | 0.00 | 0.00 | 45 | 1010.0 |
| 20260505214509 | 52 | 264 | 12.0 | 17.0 | 0.00 | 0.00 | 0.00 | 44 | 1010.1 |
| 20260505213008 | 52 | 284 | 11.0 | 18.0 | 0.00 | 0.00 | 0.00 | 44 | 1010.2 |
| 20260505211506 | 53 | 252 | 12.0 | 17.0 | 0.00 | 0.00 | 0.00 | 47 | 1010.2 |
| 20260505210006 | 53 | 273 | 11.0 | 18.0 | 0.00 | 0.00 | 0.00 | 45 | 1010.0 |
| 20260505204506 | 52 | 250 | 13.0 | 19.0 | 0.00 | 0.00 | 0.00 | 46 | 1010.1 |
| 20260505203013 | 53 | 247 | 12.0 | 16.0 | 0.00 | 0.00 | 0.00 | 46 | 1010.3 |
| 20260505201504 | 53 | 248 | 14.0 | 17.0 | 0.00 | 0.00 | 0.00 | 46 | 1010.3 |
| 20260505200004 | 54 | 296 | 4.0 | 19.0 | 0.00 | 0.00 | 0.00 | 43 | 1010.3 |
| 20260505194503 | 54 | 286 | 9.0 | 17.0 | 0.00 | 0.00 | 0.00 | 43 | 1010.4 |
| 20260505193000 | 53 | 240 | 5.0 | 18.0 | 0.00 | 0.00 | 0.00 | 39 | 1010.4 |
| 20260505191600 | 53 | 273 | 1.0 | 15.0 | 0.00 | 0.00 | 0.00 | 36 | 1010.5 |
| 20260505190059 | 54 | 265 | 1.0 | 8.0 | 0.00 | 0.00 | 0.00 | 39 | 1010.6 |
| 20260505184556 | 52 | 265 | 1.0 | 16.0 | 0.00 | 0.00 | 0.00 | 41 | 1010.7 |
| 20260505183056 | 51 | 250 | 5.0 | 20.0 | 0.00 | 0.00 | 0.00 | 40 | 1010.6 |
| 20260505181554 | 52 | 280 | 5.0 | 14.0 | 0.00 | 0.00 | 0.00 | 43 | 1010.6 |
| 20260505180107 | 51 | 262 | 8.0 | 15.0 | 0.00 | 0.00 | 0.00 | 47 | 1010.7 |
| 20260505174603 | 51 | 236 | 6.0 | 14.0 | 0.00 | 0.00 | 0.00 | 43 | 1010.8 |
| 20260505173052 | 51 | 252 | 3.0 | 15.0 | 0.00 | 0.00 | 0.00 | 43 | 1010.7 |
| 20260505171550 | 52 | 300 | 3.0 | 13.0 | 0.00 | 0.00 | 0.00 | 45 | 1010.6 |
| 20260505170049 | 51 | 236 | 5.0 | 13.0 | 0.00 | 0.00 | 0.00 | 41 | 1010.6 |
| 20260505164550 | 50 | 241 | 9.0 | 17.0 | 0.00 | 0.00 | 0.00 | 46 | 1010.7 |
| 20260505163049 | 50 | 253 | 7.0 | 15.0 | 0.00 | 0.00 | 0.00 | 46 | 1010.5 |
| 20260505161548 | 50 | 255 | 4.0 | 9.0 | 0.00 | 0.00 | 0.00 | 47 | 1010.5 |
| 20260505153042 | 50 | 247 | 4.0 | 8.0 | 0.00 | 0.00 | 0.00 | 46 | 1010.6 |
| 20260505151537 | 49 | 263 | 0.0 | 6.0 | 0.00 | 0.00 | 0.00 | 49 | 1010.7 |
| 20260505124531 | 42 | 252 | 4.0 | 7.0 | 0.00 | 0.00 | 0.00 | 67 | 1010.0 |
| 20260505123023 | 42 | 250 | 3.0 | 6.0 | 0.00 | 0.00 | 0.00 | 67 | 1009.8 |
| 20260505121522 | 40 | 242 | 2.0 | 5.0 | 0.00 | 0.00 | 0.00 | 70 | 1009.6 |
| 20260505120020 | 39 | 240 | 0.0 | 0.0 | 0.00 | 0.00 | 0.00 | 68 | 1009.3 |
| 20260505114518 | 38 | 240 | 0.0 | 0.0 | 0.00 | 0.00 | 0.00 | 68 | 1009.0 |
| 20260505113116 | 37 | 240 | 0.0 | 0.0 | 0.00 | 0.00 | 0.00 | 68 | 1008.9 |
| 20260505111513 | 37 | 240 | 0.0 | 0.0 | 0.00 | 0.00 | 0.00 | 66 | 1008.6 |
| 20260505101559 | 42 | 259 | 5.0 | 9.0 | 0.00 | 0.00 | 0.00 | 63 | 1007.8 |
| 20260505100056 | 42 | 259 | 6.0 | 10.0 | 0.00 | 0.00 | 0.00 | 62 | 1007.5 |
| 20260505094554 | 43 | 254 | 7.0 | 10.0 | 0.00 | 0.00 | 0.00 | 62 | 1007.3 |
| 20260505093050 | 43 | 248 | 4.0 | 10.0 | 0.00 | 0.00 | 0.00 | 62 | 1007.3 |
| 20260505091606 | 43 | 265 | 6.0 | 11.0 | 0.00 | 0.00 | 0.00 | 62 | 1007.1 |
| 20260505090046 | 44 | 263 | 6.0 | 11.0 | 0.00 | 0.00 | 0.00 | 62 | 1007.1 |
| 20260505084542 | 44 | 260 | 5.0 | 9.0 | 0.00 | 0.00 | 0.00 | 60 | 1006.9 |
| 20260505083039 | 45 | 263 | 7.0 | 9.0 | 0.00 | 0.00 | 0.00 | 61 | 1007.0 |
| 20260505081539 | 45 | 249 | 5.0 | 10.0 | 0.00 | 0.00 | 0.00 | 60 | 1006.8 |
| 20260505080034 | 45 | 246 | 7.0 | 10.0 | 0.00 | 0.00 | 0.00 | 57 | 1006.8 |
| 20260505074532 | 46 | 256 | 6.0 | 10.0 | 0.00 | 0.00 | 0.00 | 57 | 1006.7 |
| 20260505073032 | 46 | 269 | 7.0 | 10.0 | 0.00 | 0.00 | 0.00 | 56 | 1006.8 |
| 20260505071528 | 46 | 260 | 7.0 | 11.0 | 0.00 | 0.00 | 0.00 | 58 | 1006.6 |
| 20260505070026 | 46 | 252 | 8.0 | 10.0 | 0.00 | 0.00 | 0.00 | 56 | 1006.5 |
| 20260505064523 | 46 | 264 | 7.0 | 12.0 | 0.00 | 0.00 | 0.00 | 56 | 1006.4 |
| 20260505063019 | 47 | 269 | 7.0 | 11.0 | 0.00 | 0.00 | 0.00 | 53 | 1006.5 |
| 20260505061516 | 47 | 262 | 6.0 | 11.0 | 0.00 | 0.00 | 0.00 | 56 | 1006.4 |
| 20260505060015 | 47 | 269 | 3.0 | 9.0 | 0.00 | 0.00 | 0.00 | 56 | 1006.4 |
| 20260505054512 | 47 | 269 | 2.0 | 11.0 | 0.00 | 0.00 | 0.00 | 55 | 1006.3 |
| 20260505053009 | 47 | 275 | 7.0 | 11.0 | 0.00 | 0.00 | 0.00 | 55 | 1006.2 |
| 20260505051522 | 48 | 274 | 6.0 | 12.0 | 0.00 | 0.00 | 0.00 | 55 | 1006.3 |
| 20260505041606 | 49 | 272 | 11.0 | 17.0 | 0.00 | 0.00 | 0.00 | 56 | 1006.4 |
| 20260505040104 | 50 | 288 | 11.0 | 16.0 | 0.00 | 0.00 | 0.00 | 55 | 1006.3 |
| 20260505034557 | 50 | 271 | 11.0 | 18.0 | 0.00 | 0.00 | 0.00 | 54 | 1006.2 |
| 20260505033056 | 50 | 277 | 10.0 | 17.0 | 0.00 | 0.00 | 0.00 | 53 | 1006.1 |
| 20260505031558 | 51 | 271 | 13.0 | 20.0 | 0.00 | 0.00 | 0.00 | 52 | 1006.0 |
| 20260505030053 | 51 | 265 | 14.0 | 20.0 | 0.00 | 0.00 | 0.00 | 51 | 1006.0 |
| 20260505024553 | 52 | 278 | 14.0 | 22.0 | 0.00 | 0.00 | 0.00 | 52 | 1005.7 |
| 20260505023046 | 52 | 277 | 14.0 | 19.0 | 0.00 | 0.00 | 0.00 | 53 | 1005.3 |
| 20260505021549 | 52 | 270 | 15.0 | 24.0 | 0.00 | 0.00 | 0.00 | 52 | 1005.0 |
| 20260505020041 | 53 | 268 | 14.0 | 23.0 | 0.00 | 0.00 | 0.00 | 52 | 1004.6 |
| 20260505014538 | 53 | 279 | 17.0 | 24.0 | 0.00 | 0.00 | 0.00 | 51 | 1004.2 |
| 20260505013035 | 53 | 273 | 15.0 | 21.0 | 0.00 | 0.00 | 0.00 | 53 | 1004.0 |
| 20260505011534 | 54 | 274 | 15.0 | 29.0 | 0.00 | 0.00 | 0.00 | 53 | 1003.8 |
| 20260505010033 | 55 | 257 | 21.0 | 27.0 | 0.00 | 0.00 | 0.00 | 52 | 1003.5 |
| 20260505004530 | 57 | 269 | 18.0 | 24.0 | 0.00 | 0.00 | 0.00 | 48 | 1003.0 |
| 20260505003030 | 57 | 248 | 16.0 | 27.0 | 0.00 | 0.00 | 0.00 | 48 | 1002.8 |
| 20260505001529 | 58 | 264 | 17.0 | 24.0 | 0.00 | 0.00 | 0.00 | 45 | 1002.3 |
| 20260505000030 | 58 | 250 | 20.0 | 26.0 | 0.00 | 0.00 | 0.00 | 46 | 1002.3 |
| 20260504234533 | 58 | 264 | 22.0 | 29.0 | 0.00 | 0.00 | 0.00 | 42 | 1002.3 |
| 20260504233027 | 59 | 235 | 19.0 | 24.0 | 0.00 | 0.00 | 0.00 | 42 | 1002.4 |
| 20260504231526 | 59 | 242 | 16.0 | 27.0 | 0.00 | 0.00 | 0.00 | 43 | 1002.4 |